Time,TemperatureF,DewpointF,PressureIn,WindDirection,WindDirectionDegrees,WindSpeedMPH,WindSpeedGustMPH,Humidity,HourlyPrecipIn,Conditions,Clouds,dailyrainin,SolarRadiationWatts/m^2,SoftwareType,DateUTC
2013-01-17 00:05:00,36.0,32.0,30.07,NW,304,11.0,-999.0,84,-99.99,,,0.00,0,weatherlink.com 1.10,2013-01-17 06:05:00,
2013-01-17 00:20:00,36.3,32.0,30.08,NNW,327,11.0,-999.0,85,-99.99,,,0.00,0,weatherlink.com 1.10,2013-01-17 06:20:00,
2013-01-17 00:35:00,36.0,32.0,30.09,NW,309,10.0,-999.0,85,-99.99,,,0.00,0,weatherlink.com 1.10,2013-01-17 06:35:00,
2013-01-17 00:50:00,35.8,32.0,30.11,NW,311,13.0,-999.0,85,-99.99,,,0.00,0,weatherlink.com 1.10,2013-01-17 06:50:00,
2013-01-17 01:05:00,35.6,31.0,30.11,NW,310,11.0,-999.0,84,-99.99,,,0.00,0,weatherlink.com 1.10,2013-01-17 07:05:00,
2013-01-17 01:20:00,35.5,31.0,30.13,NW,307,8.0,-999.0,83,-99.99,,,0.00,0,weatherlink.com 1.10,2013-01-17 07:20:00,
2013-01-17 01:35:00,35.2,30.0,30.13,NW,304,7.0,-999.0,82,-99.99,,,0.00,0,weatherlink.com 1.10,2013-01-17 07:35:00,
2013-01-17 01:50:00,34.9,30.0,30.14,NW,309,12.0,-999.0,82,-99.99,,,0.00,0,weatherlink.com 1.10,2013-01-17 07:50:00,
2013-01-17 02:05:00,34.9,30.0,30.14,NW,306,11.0,-999.0,81,-99.99,,,0.00,0,weatherlink.com 1.10,2013-01-17 08:05:00,
2013-01-17 02:20:00,34.6,29.0,30.14,NW,316,11.0,-999.0,80,-99.99,,,0.00,0,weatherlink.com 1.10,2013-01-17 08:20:00,
2013-01-17 02:35:00,34.3,29.0,30.15,NW,314,11.0,-999.0,80,-99.99,,,0.00,0,weatherlink.com 1.10,2013-01-17 08:35:00,
2013-01-17 02:50:00,33.8,28.0,30.16,NNW,333,11.0,-999.0,79,-99.99,,,0.00,0,weatherlink.com 1.10,2013-01-17 08:50:00,
2013-01-17 03:05:00,33.4,27.0,30.18,NW,319,11.0,-999.0,78,-99.99,,,0.00,0,weatherlink.com 1.10,2013-01-17 09:05:00,
2013-01-17 03:20:00,32.8,27.0,30.18,NW,304,10.0,-999.0,79,-99.99,,,0.00,0,weatherlink.com 1.10,2013-01-17 09:20:00,
2013-01-17 03:35:00,31.8,26.0,30.19,NW,304,13.0,-999.0,80,-99.99,,,0.00,0,weatherlink.com 1.10,2013-01-17 09:35:00,
2013-01-17 03:50:00,30.1,25.0,30.19,NW,310,10.0,-999.0,81,-99.99,,,0.00,0,weatherlink.com 1.10,2013-01-17 09:50:00,
2013-01-17 04:05:00,29.0,24.0,30.20,NW,309,8.0,-999.0,80,-99.99,,,0.00,0,weatherlink.com 1.10,2013-01-17 10:05:00,
2013-01-17 04:20:00,28.2,23.0,30.21,NW,313,5.0,-999.0,81,-99.99,,,0.00,0,weatherlink.com 1.10,2013-01-17 10:20:00,
2013-01-17 04:36:00,27.6,23.0,30.22,NW,313,9.0,-999.0,81,-99.99,,,0.00,0,weatherlink.com 1.10,2013-01-17 10:36:00,
2013-01-17 04:50:00,27.0,22.0,30.23,NW,306,12.0,-999.0,81,-99.99,,,0.00,0,weatherlink.com 1.10,2013-01-17 10:50:00,
2013-01-17 05:05:00,26.7,21.0,30.23,NNW,329,11.0,-999.0,80,-99.99,,,0.00,0,weatherlink.com 1.10,2013-01-17 11:05:00,
2013-01-17 05:20:00,26.3,21.0,30.25,NW,322,12.0,-999.0,80,-99.99,,,0.00,0,weatherlink.com 1.10,2013-01-17 11:20:00,
2013-01-17 05:36:00,25.7,20.0,30.25,NW,305,10.0,-999.0,80,-99.99,,,0.00,0,weatherlink.com 1.10,2013-01-17 11:36:00,
2013-01-17 05:51:00,25.1,20.0,30.27,NW,309,8.0,-999.0,80,-99.99,,,0.00,0,weatherlink.com 1.10,2013-01-17 11:51:00,
2013-01-17 06:06:00,24.8,19.0,30.28,NW,309,7.0,-999.0,80,-99.99,,,0.00,0,weatherlink.com 1.10,2013-01-17 12:06:00,
2013-01-17 06:21:00,24.1,19.0,30.28,NW,319,10.0,-999.0,79,-99.99,,,0.00,0,weatherlink.com 1.10,2013-01-17 12:21:00,
2013-01-17 06:36:00,23.8,18.0,30.29,NW,314,13.0,-999.0,77,-99.99,,,0.00,0,weatherlink.com 1.10,2013-01-17 12:36:00,
2013-01-17 06:51:00,23.3,17.0,30.30,NW,321,10.0,-999.0,75,-99.99,,,0.00,0,weatherlink.com 1.10,2013-01-17 12:51:00,
2013-01-17 07:06:00,22.9,16.0,30.30,WNW,300,10.0,-999.0,74,-99.99,,,0.00,0,weatherlink.com 1.10,2013-01-17 13:06:00,
2013-01-17 07:21:00,22.5,15.0,30.31,NW,311,9.0,-999.0,73,-99.99,,,0.00,0,weatherlink.com 1.10,2013-01-17 13:21:00,
2013-01-17 07:36:00,22.5,15.0,30.32,NW,313,11.0,-999.0,72,-99.99,,,0.00,12,weatherlink.com 1.10,2013-01-17 13:36:00,
2013-01-17 07:51:00,22.5,15.0,30.32,NW,313,7.0,-999.0,72,-99.99,,,0.00,28,weatherlink.com 1.10,2013-01-17 13:51:00,
2013-01-17 08:06:00,22.9,15.0,30.32,NW,310,6.0,-999.0,71,-99.99,,,0.00,58,weatherlink.com 1.10,2013-01-17 14:06:00,
2013-01-17 08:21:00,23.3,15.0,30.32,NW,322,5.0,-999.0,70,-99.99,,,0.00,86,weatherlink.com 1.10,2013-01-17 14:21:00,
2013-01-17 08:36:00,23.5,14.0,30.33,NW,319,10.0,-999.0,67,-99.99,,,0.00,148,weatherlink.com 1.10,2013-01-17 14:36:00,
2013-01-17 08:51:00,24.1,15.0,30.34,NW,326,10.0,-999.0,68,-99.99,,,0.00,197,weatherlink.com 1.10,2013-01-17 14:51:00,
2013-01-17 09:06:00,24.4,14.0,30.35,NW,309,14.0,-999.0,64,-99.99,,,0.00,244,weatherlink.com 1.10,2013-01-17 15:06:00,
2013-01-17 09:21:00,25.0,14.0,30.35,NW,315,12.0,-999.0,63,-99.99,,,0.00,279,weatherlink.com 1.10,2013-01-17 15:21:00,
2013-01-17 09:36:00,25.3,14.0,30.36,NW,321,9.0,-999.0,62,-99.99,,,0.00,315,weatherlink.com 1.10,2013-01-17 15:36:00,
2013-01-17 09:51:00,25.8,12.0,30.37,WNW,302,10.0,-999.0,57,-99.99,,,0.00,345,weatherlink.com 1.10,2013-01-17 15:51:00,
2013-01-17 10:07:00,26.0,11.0,30.38,WNW,300,10.0,-999.0,54,-99.99,,,0.00,373,weatherlink.com 1.10,2013-01-17 16:07:00,
2013-01-17 10:22:00,26.0,10.0,30.39,NNW,346,17.0,-999.0,52,-99.99,,,0.00,397,weatherlink.com 1.10,2013-01-17 16:22:00,
2013-01-17 10:37:00,26.4,10.0,30.39,NW,317,16.0,-999.0,50,-99.99,,,0.00,418,weatherlink.com 1.10,2013-01-17 16:37:00,
2013-01-17 10:52:00,26.7,11.0,30.39,NW,311,19.0,-999.0,52,-99.99,,,0.00,438,weatherlink.com 1.10,2013-01-17 16:52:00,
2013-01-17 11:07:00,26.9,12.0,30.39,WNW,298,14.0,-999.0,53,-99.99,,,0.00,454,weatherlink.com 1.10,2013-01-17 17:07:00,
2013-01-17 11:22:00,27.0,11.0,30.38,NW,318,18.0,-999.0,52,-99.99,,,0.00,464,weatherlink.com 1.10,2013-01-17 17:22:00,
2013-01-17 11:37:00,27.5,12.0,30.38,NW,304,20.0,-999.0,53,-99.99,,,0.00,475,weatherlink.com 1.10,2013-01-17 17:37:00,
2013-01-17 11:52:00,27.8,12.0,30.37,NW,310,15.0,-999.0,51,-99.99,,,0.00,478,weatherlink.com 1.10,2013-01-17 17:52:00,
2013-01-17 12:07:00,28.5,12.0,30.37,NW,313,16.0,-999.0,51,-99.99,,,0.00,482,weatherlink.com 1.10,2013-01-17 18:07:00,
2013-01-17 12:22:00,28.7,12.0,30.37,WNW,302,17.0,-999.0,50,-99.99,,,0.00,480,weatherlink.com 1.10,2013-01-17 18:22:00,
2013-01-17 12:37:00,29.0,13.0,30.36,NW,323,10.0,-999.0,52,-99.99,,,0.00,473,weatherlink.com 1.10,2013-01-17 18:37:00,
2013-01-17 12:52:00,29.4,14.0,30.36,WNW,282,9.0,-999.0,52,-99.99,,,0.00,464,weatherlink.com 1.10,2013-01-17 18:52:00,
2013-01-17 13:07:00,29.8,13.0,30.35,NW,308,18.0,-999.0,50,-99.99,,,0.00,454,weatherlink.com 1.10,2013-01-17 19:07:00,
2013-01-17 13:22:00,30.3,14.0,30.36,WNW,302,13.0,-999.0,50,-99.99,,,0.00,439,weatherlink.com 1.10,2013-01-17 19:22:00,
2013-01-17 13:37:00,30.7,13.0,30.35,NW,305,15.0,-999.0,49,-99.99,,,0.00,418,weatherlink.com 1.10,2013-01-17 19:37:00,
2013-01-17 13:52:00,30.6,13.0,30.35,NW,305,18.0,-999.0,49,-99.99,,,0.00,399,weatherlink.com 1.10,2013-01-17 19:52:00,
2013-01-17 14:07:00,30.7,14.0,30.35,NNW,340,12.0,-999.0,50,-99.99,,,0.00,287,weatherlink.com 1.10,2013-01-17 20:07:00,
2013-01-17 14:22:00,31.0,15.0,30.35,NW,309,18.0,-999.0,51,-99.99,,,0.00,309,weatherlink.com 1.10,2013-01-17 20:22:00,
2013-01-17 14:37:00,31.2,15.0,30.35,NW,308,12.0,-999.0,51,-99.99,,,0.00,218,weatherlink.com 1.10,2013-01-17 20:37:00,
2013-01-17 14:52:00,31.6,15.0,30.35,NW,304,12.0,-999.0,50,-99.99,,,0.00,58,weatherlink.com 1.10,2013-01-17 20:52:00,
2013-01-17 15:07:00,31.8,14.0,30.35,WNW,302,12.0,-999.0,49,-99.99,,,0.00,167,weatherlink.com 1.10,2013-01-17 21:07:00,
2013-01-17 15:22:00,32.1,16.0,30.36,NW,309,12.0,-999.0,51,-99.99,,,0.00,100,weatherlink.com 1.10,2013-01-17 21:22:00,
2013-01-17 15:37:00,31.9,15.0,30.36,WNW,302,11.0,-999.0,50,-99.99,,,0.00,100,weatherlink.com 1.10,2013-01-17 21:37:00,
2013-01-17 15:52:00,32.2,15.0,30.36,WNW,296,10.0,-999.0,50,-99.99,,,0.00,102,weatherlink.com 1.10,2013-01-17 21:52:00,
2013-01-17 16:07:00,32.2,16.0,30.36,WNW,296,9.0,-999.0,52,-99.99,,,0.00,62,weatherlink.com 1.10,2013-01-17 22:07:00,
2013-01-17 16:22:00,31.9,17.0,30.36,WNW,292,5.0,-999.0,54,-99.99,,,0.00,26,weatherlink.com 1.10,2013-01-17 22:22:00,
2013-01-17 16:37:00,31.3,17.0,30.36,WNW,295,5.0,-999.0,55,-99.99,,,0.00,16,weatherlink.com 1.10,2013-01-17 22:37:00,
2013-01-17 16:52:00,30.3,17.0,30.37,WNW,286,5.0,-999.0,58,-99.99,,,0.00,9,weatherlink.com 1.10,2013-01-17 22:52:00,
2013-01-17 17:07:00,29.0,17.0,30.37,West,281,5.0,-999.0,61,-99.99,,,0.00,0,weatherlink.com 1.10,2013-01-17 23:07:00,
2013-01-17 17:22:00,28.2,17.0,30.38,West,280,5.0,-999.0,63,-99.99,,,0.00,0,weatherlink.com 1.10,2013-01-17 23:22:00,
2013-01-17 17:37:00,27.6,17.0,30.39,WNW,286,4.0,-999.0,65,-99.99,,,0.00,0,weatherlink.com 1.10,2013-01-17 23:37:00,
2013-01-17 17:52:00,27.2,17.0,30.39,WNW,288,4.0,-999.0,65,-99.99,,,0.00,0,weatherlink.com 1.10,2013-01-17 23:52:00,
2013-01-17 18:07:00,26.9,16.0,30.39,WNW,286,3.0,-999.0,64,-99.99,,,0.00,0,weatherlink.com 1.10,2013-01-18 00:07:00,
2013-01-17 18:22:00,24.1,16.0,30.39,West,269,3.0,-999.0,71,-99.99,,,0.00,0,weatherlink.com 1.10,2013-01-18 00:22:00,
2013-01-17 18:37:00,22.9,16.0,30.40,West,264,3.0,-999.0,74,-99.99,,,0.00,0,weatherlink.com 1.10,2013-01-18 00:37:00,
2013-01-17 18:52:00,22.7,17.0,30.41,West,262,3.0,-999.0,77,-99.99,,,0.00,0,weatherlink.com 1.10,2013-01-18 00:52:00,
2013-01-17 19:07:00,22.4,16.0,30.41,West,263,4.0,-999.0,75,-99.99,,,0.00,0,weatherlink.com 1.10,2013-01-18 01:07:00,
2013-01-17 19:22:00,21.6,15.0,30.42,WSW,256,4.0,-999.0,77,-99.99,,,0.00,0,weatherlink.com 1.10,2013-01-18 01:22:00,
2013-01-17 19:37:00,23.9,16.0,30.42,West,275,5.0,-999.0,72,-99.99,,,0.00,0,weatherlink.com 1.10,2013-01-18 01:37:00,
2013-01-17 19:52:00,24.2,16.0,30.42,West,271,4.0,-999.0,70,-99.99,,,0.00,0,weatherlink.com 1.10,2013-01-18 01:52:00,
2013-01-17 20:07:00,24.2,16.0,30.42,West,277,4.0,-999.0,71,-99.99,,,0.00,0,weatherlink.com 1.10,2013-01-18 02:07:00,
2013-01-17 20:22:00,24.1,16.0,30.42,West,279,3.0,-999.0,71,-99.99,,,0.00,0,weatherlink.com 1.10,2013-01-18 02:22:00,
2013-01-17 20:37:00,23.8,16.0,30.42,WNW,284,5.0,-999.0,71,-99.99,,,0.00,0,weatherlink.com 1.10,2013-01-18 02:37:00,
2013-01-17 20:52:00,24.2,16.0,30.42,WNW,292,3.0,-999.0,70,-99.99,,,0.00,0,weatherlink.com 1.10,2013-01-18 02:52:00,
2013-01-17 21:07:00,24.5,16.0,30.42,WNW,288,4.0,-999.0,69,-99.99,,,0.00,0,weatherlink.com 1.10,2013-01-18 03:07:00,
2013-01-17 21:22:00,22.1,14.0,30.42,West,277,3.0,-999.0,70,-99.99,,,0.00,0,weatherlink.com 1.10,2013-01-18 03:22:00,
2013-01-17 21:37:00,21.1,14.0,30.41,West,273,2.0,-999.0,73,-99.99,,,0.00,0,weatherlink.com 1.10,2013-01-18 03:37:00,
2013-01-17 21:52:00,19.9,13.0,30.41,WSW,237,6.0,-999.0,75,-99.99,,,0.00,0,weatherlink.com 1.10,2013-01-18 03:52:00,
2013-01-17 22:07:00,18.9,13.0,30.41,WSW,239,5.0,-999.0,79,-99.99,,,0.00,0,weatherlink.com 1.10,2013-01-18 04:07:00,
2013-01-17 22:22:00,19.4,14.0,30.41,WSW,248,5.0,-999.0,79,-99.99,,,0.00,0,weatherlink.com 1.10,2013-01-18 04:22:00,
2013-01-17 22:37:00,19.4,14.0,30.41,WSW,254,5.0,-999.0,78,-99.99,,,0.00,0,weatherlink.com 1.10,2013-01-18 04:37:00,
2013-01-17 22:52:00,19.7,14.0,30.42,WSW,252,4.0,-999.0,78,-99.99,,,0.00,0,weatherlink.com 1.10,2013-01-18 04:52:00,
2013-01-17 23:07:00,18.9,13.0,30.42,WSW,244,5.0,-999.0,77,-99.99,,,0.00,0,weatherlink.com 1.10,2013-01-18 05:07:00,
2013-01-17 23:22:00,18.4,13.0,30.42,WSW,239,2.0,-999.0,80,-99.99,,,0.00,0,weatherlink.com 1.10,2013-01-18 05:22:00,
2013-01-17 23:37:00,18.8,14.0,30.41,SW,225,6.0,-999.0,80,-99.99,,,0.00,0,weatherlink.com 1.10,2013-01-18 05:37:00,
2013-01-17 23:52:00,20.2,15.0,30.41,SSW,206,9.0,-999.0,80,-99.99,,,0.00,0,weatherlink.com 1.10,2013-01-18 05:52:00,